This demonstration page uses our WeatherBlox Daily Observations layout. Learn more.

Left ArrowRight Arrow

34.74481, -87.66753

Hourly Observations for July 26, 2019

Temp ( °F °C ) Dew Point ( °F °C ) Humidity (%) Winds ( mph kmh ) Pressure ( in mb ) Visibility ( mi km ) Precip ( " mm )
12:53 am 00:53 Mostly Clear 70 21.1 64 17.8 82 82 ENE 3 6 30.14 1021 10 16 0.00 0.00
1:53 am 01:53 Clear 70 21.1 63 17.2 79 79 undefined N/A 30.13 1020 10 16 0.00 0.00
2:53 am 02:53 Clear 68 20 63 17.2 84 84 undefined N/A 30.13 1020 10 16 0.00 0.00
3:53 am 03:53 Mostly Cloudy 68 20 64 17.8 87 87 undefined N/A 30.14 1021 10 16 0.00 0.00
4:53 am 04:53 Mostly Cloudy 68 20 64 17.8 87 87 undefined N/A 30.15 1021 10 16 0.00 0.00
5:53 am 05:53 Cloudy 69 20.6 64 17.8 84 84 Calm 30.17 1022 10 16 0.00 0.00
6:53 am 06:53 Cloudy 70 21.1 66 18.9 87 87 ESE 6 9 30.19 1022 10 16 0.00 0.00
7:53 am 07:53 Sunny 73 22.8 66 18.9 79 79 ESE 6 9 30.20 1023 10 16 0.00 0.00
8:53 am 08:53 Sunny 77 25 66 18.9 69 69 ESE 6 9 30.21 1023 10 16 0.00 0.00
9:53 am 09:53 Sunny 82 27.8 66 18.9 58 58 SSE 5 7 30.22 1023 10 16 0.00 0.00
10:53 am 10:53 Sunny 85 29.4 64 17.8 50 50 SE 6 9 30.21 1023 10 16 0.00 0.00
11:53 am 11:53 Sunny 87 30.6 63 17.2 45 45 SE 7 11 30.22 1023 10 16 0.00 0.00
12:53 pm 12:53 Sunny 89 31.7 55 12.8 31 31 SE 6 9 30.20 1023 10 16 0.00 0.00
1:53 pm 13:53 Sunny 89 31.7 58 14.4 35 35 SSE 7 11 30.19 1022 10 16 0.00 0.00
2:53 pm 14:53 Sunny 90 32.2 59 15 35 35 ESE 7 11 30.19 1022 10 16 0.00 0.00
3:53 pm 15:53 Sunny 90 32.2 55 12.8 31 31 NE 5 7 30.17 1022 10 16 0.00 0.00
4:53 pm 16:53 Sunny 89 31.7 54 12.2 30 30 Calm 30.16 1022 10 16 0.00 0.00
5:53 pm 17:53 Sunny 86 30 61 16.1 43 43 E 5 7 30.16 1021 10 16 0.00 0.00
6:53 pm 18:53 Sunny 85 29.4 64 17.8 50 50 Calm 30.16 1021 10 16 0.00 0.00
7:53 pm 19:53 Sunny 79 26.1 66 18.9 65 65 ENE 5 7 30.16 1022 10 16 0.00 0.00
8:53 pm 20:53 Clear 75 23.9 67 19.4 76 76 E 3 6 30.17 1022 10 16 0.00 0.00
9:53 pm 21:53 Clear 74 23.3 68 20 82 82 Calm 30.19 1022 10 16 0.00 0.00
10:53 pm 22:53 Clear 72 22.2 67 19.4 84 84 Calm 30.19 1022 10 16 0.00 0.00
11:53 pm 23:53 Mostly Clear 72 22.2 68 20 87 87 Calm 30.19 1022 10 16 0.00 0.00

Powered by AerisWeather